Time,TemperatureF,DewpointF,PressureIn,WindDirection,WindDirectionDegrees,WindSpeedMPH,WindSpeedGustMPH,Humidity,HourlyPrecipIn,Conditions,Clouds,dailyrainin,SoftwareType,DateUTC
2013-10-18 00:01:00,29.9,25.0,27.71,NE,45,0.0,0.0,82,0.00,,,0.00,WUHU216HW,2013-10-18 07:01:00,
2013-10-18 00:06:00,29.9,25.0,27.71,NE,45,0.0,0.0,82,0.00,,,0.00,WUHU216HW,2013-10-18 07:06:00,
2013-10-18 00:11:00,29.9,24.8,27.71,NE,45,0.0,0.0,81,0.00,,,0.00,WUHU216HW,2013-10-18 07:11:00,
2013-10-18 00:16:00,29.7,24.8,27.71,NE,45,0.0,0.0,82,0.00,,,0.00,WUHU216HW,2013-10-18 07:16:00,
2013-10-18 00:21:00,29.5,24.7,27.71,ENE,68,0.0,0.0,82,0.00,,,0.00,WUHU216HW,2013-10-18 07:21:00,
2013-10-18 00:27:00,29.3,24.5,27.71,ENE,68,0.0,0.0,82,0.00,,,0.00,WUHU216HW,2013-10-18 07:27:00,
2013-10-18 00:32:00,29.2,24.3,27.71,ENE,68,0.0,0.0,82,0.00,,,0.00,WUHU216HW,2013-10-18 07:32:00,
2013-10-18 00:37:00,29.2,24.3,27.71,ENE,68,0.0,0.0,82,0.00,,,0.00,WUHU216HW,2013-10-18 07:37:00,
2013-10-18 00:42:00,29.0,24.1,27.71,ENE,68,0.0,0.0,82,0.00,,,0.00,WUHU216HW,2013-10-18 07:42:00,
2013-10-18 00:47:00,29.0,24.1,27.71,ENE,68,0.0,0.0,82,0.00,,,0.00,WUHU216HW,2013-10-18 07:47:00,
2013-10-18 00:52:00,28.8,23.9,27.71,ENE,68,0.0,0.0,82,0.00,,,0.00,WUHU216HW,2013-10-18 07:52:00,
2013-10-18 00:57:00,28.8,24.3,27.71,ENE,68,0.0,0.0,83,0.00,,,0.00,WUHU216HW,2013-10-18 07:57:00,
2013-10-18 01:02:00,28.8,23.9,27.71,ENE,68,0.0,0.0,82,0.00,,,0.00,WUHU216HW,2013-10-18 08:02:00,
2013-10-18 01:07:00,28.8,23.9,27.71,ENE,68,0.0,0.0,82,0.00,,,0.00,WUHU216HW,2013-10-18 08:07:00,
2013-10-18 01:12:00,28.6,23.8,27.71,ENE,68,0.0,0.0,82,0.00,,,0.00,WUHU216HW,2013-10-18 08:12:00,
2013-10-18 01:17:00,28.4,24.0,27.71,ENE,68,0.0,0.0,83,0.00,,,0.00,WUHU216HW,2013-10-18 08:17:00,
2013-10-18 01:22:00,28.4,24.0,27.71,ENE,68,0.0,0.0,83,0.00,,,0.00,WUHU216HW,2013-10-18 08:22:00,
2013-10-18 01:27:00,28.3,23.8,27.72,ENE,68,0.0,0.0,83,0.00,,,0.00,WUHU216HW,2013-10-18 08:27:00,
2013-10-18 01:32:00,28.1,23.6,27.72,ENE,68,0.0,0.0,83,0.00,,,0.00,WUHU216HW,2013-10-18 08:32:00,
2013-10-18 01:37:00,28.1,23.6,27.72,ENE,68,0.0,0.0,83,0.00,,,0.00,WUHU216HW,2013-10-18 08:37:00,
2013-10-18 01:42:00,27.9,23.7,27.71,East,90,0.0,0.0,84,0.00,,,0.00,WUHU216HW,2013-10-18 08:42:00,
2013-10-18 01:47:00,27.9,23.7,27.71,East,90,0.0,0.0,84,0.00,,,0.00,WUHU216HW,2013-10-18 08:47:00,
2013-10-18 01:52:00,27.9,23.4,27.71,East,90,0.0,0.4,83,0.00,,,0.00,WUHU216HW,2013-10-18 08:52:00,
2013-10-18 01:57:00,27.7,23.2,27.71,East,90,0.0,0.4,83,0.00,,,0.00,WUHU216HW,2013-10-18 08:57:00,
2013-10-18 02:02:00,27.7,23.2,27.72,East,90,0.0,0.2,83,0.00,,,0.00,WUHU216HW,2013-10-18 09:02:00,
2013-10-18 02:07:00,27.7,23.2,27.71,East,90,0.0,0.0,83,0.00,,,0.00,WUHU216HW,2013-10-18 09:07:00,
2013-10-18 02:12:00,27.7,23.5,27.71,East,90,0.0,0.0,84,0.00,,,0.00,WUHU216HW,2013-10-18 09:12:00,
2013-10-18 02:17:00,27.7,23.5,27.72,East,90,0.0,0.0,84,0.00,,,0.00,WUHU216HW,2013-10-18 09:17:00,
2013-10-18 02:22:00,27.7,23.2,27.72,East,90,0.0,0.0,83,0.00,,,0.00,WUHU216HW,2013-10-18 09:22:00,
2013-10-18 02:27:00,27.9,23.4,27.72,East,90,0.0,0.0,83,0.00,,,0.00,WUHU216HW,2013-10-18 09:27:00,
2013-10-18 02:32:00,27.9,23.4,27.72,East,90,0.0,0.0,83,0.00,,,0.00,WUHU216HW,2013-10-18 09:32:00,
2013-10-18 02:37:00,27.7,23.2,27.72,East,90,0.0,0.0,83,0.00,,,0.00,WUHU216HW,2013-10-18 09:37:00,
2013-10-18 02:42:00,27.7,23.2,27.72,East,90,0.0,0.0,83,0.00,,,0.00,WUHU216HW,2013-10-18 09:42:00,
2013-10-18 02:47:00,27.7,23.2,27.72,East,90,0.0,0.0,83,0.00,,,0.00,WUHU216HW,2013-10-18 09:47:00,
2013-10-18 02:52:00,27.5,23.1,27.72,East,90,0.0,0.0,83,0.00,,,0.00,WUHU216HW,2013-10-18 09:52:00,
2013-10-18 02:57:00,27.4,22.9,27.72,East,90,0.0,0.0,83,0.00,,,0.00,WUHU216HW,2013-10-18 09:57:00,
2013-10-18 03:02:00,27.2,22.7,27.72,East,90,0.0,0.0,83,0.00,,,0.00,WUHU216HW,2013-10-18 10:02:00,
2013-10-18 03:07:00,27.2,22.7,27.72,East,90,0.0,0.0,83,0.00,,,0.00,WUHU216HW,2013-10-18 10:07:00,
2013-10-18 03:12:00,27.0,22.5,27.72,East,90,0.7,0.7,83,0.00,,,0.00,WUHU216HW,2013-10-18 10:12:00,
2013-10-18 03:17:00,27.0,22.8,27.72,East,90,0.2,0.7,84,0.00,,,0.00,WUHU216HW,2013-10-18 10:17:00,
2013-10-18 03:22:00,26.8,22.6,27.72,East,90,0.0,0.7,84,0.00,,,0.00,WUHU216HW,2013-10-18 10:22:00,
2013-10-18 03:27:00,26.6,22.4,27.72,East,90,0.0,0.2,84,0.00,,,0.00,WUHU216HW,2013-10-18 10:27:00,
2013-10-18 03:32:00,26.6,22.4,27.72,East,90,0.0,0.2,84,0.00,,,0.00,WUHU216HW,2013-10-18 10:32:00,
2013-10-18 03:37:00,26.6,22.4,27.72,East,90,0.0,0.0,84,0.00,,,0.00,WUHU216HW,2013-10-18 10:37:00,
2013-10-18 03:42:00,26.5,22.2,27.72,East,90,0.0,0.2,84,0.00,,,0.00,WUHU216HW,2013-10-18 10:42:00,
2013-10-18 03:47:00,26.5,22.2,27.72,East,90,0.0,0.2,84,0.00,,,0.00,WUHU216HW,2013-10-18 10:47:00,
2013-10-18 03:52:00,26.5,22.5,27.72,East,90,0.0,0.0,85,0.00,,,0.00,WUHU216HW,2013-10-18 10:52:00,
2013-10-18 03:57:00,26.5,22.2,27.72,East,90,0.0,0.0,84,0.00,,,0.00,WUHU216HW,2013-10-18 10:57:00,
2013-10-18 04:02:00,26.3,22.1,27.72,East,90,0.0,0.0,84,0.00,,,0.00,WUHU216HW,2013-10-18 11:02:00,
2013-10-18 04:07:00,26.3,22.1,27.72,East,90,0.0,0.0,84,0.00,,,0.00,WUHU216HW,2013-10-18 11:07:00,
2013-10-18 04:12:00,26.3,22.1,27.72,East,90,0.0,0.0,84,0.00,,,0.00,WUHU216HW,2013-10-18 11:12:00,
2013-10-18 04:17:00,26.3,22.1,27.72,East,90,0.0,0.0,84,0.00,,,0.00,WUHU216HW,2013-10-18 11:17:00,
2013-10-18 04:22:00,26.3,22.3,27.72,East,90,0.0,0.0,85,0.00,,,0.00,WUHU216HW,2013-10-18 11:22:00,
2013-10-18 04:27:00,26.1,22.1,27.72,East,90,0.0,0.0,85,0.00,,,0.00,WUHU216HW,2013-10-18 11:27:00,
2013-10-18 04:32:00,26.1,22.1,27.72,East,90,0.0,0.0,85,0.00,,,0.00,WUHU216HW,2013-10-18 11:32:00,
2013-10-18 04:37:00,26.1,22.1,27.72,East,90,0.0,0.0,85,0.00,,,0.00,WUHU216HW,2013-10-18 11:37:00,
2013-10-18 04:42:00,25.9,22.0,27.72,East,90,0.0,0.0,85,0.00,,,0.00,WUHU216HW,2013-10-18 11:42:00,
2013-10-18 04:47:00,25.9,21.7,27.72,East,90,0.0,0.0,84,0.00,,,0.00,WUHU216HW,2013-10-18 11:47:00,
2013-10-18 04:52:00,25.9,22.0,27.72,East,90,0.0,0.0,85,0.00,,,0.00,WUHU216HW,2013-10-18 11:52:00,
2013-10-18 04:57:00,25.7,21.9,27.72,East,90,0.0,0.0,85,0.00,,,0.00,WUHU216HW,2013-10-18 11:57:00,
2013-10-18 05:02:00,25.7,21.9,27.72,East,90,0.0,0.0,85,0.00,,,0.00,WUHU216HW,2013-10-18 12:02:00,
2013-10-18 05:07:00,25.7,21.9,27.72,East,90,0.0,0.0,85,0.00,,,0.00,WUHU216HW,2013-10-18 12:07:00,
2013-10-18 05:12:00,25.6,21.7,27.71,East,90,0.0,0.0,85,0.00,,,0.00,WUHU216HW,2013-10-18 12:12:00,
2013-10-18 05:17:00,25.6,21.7,27.71,East,90,0.0,0.0,85,0.00,,,0.00,WUHU216HW,2013-10-18 12:17:00,
2013-10-18 05:22:00,25.6,21.7,27.71,East,90,0.0,0.0,85,0.00,,,0.00,WUHU216HW,2013-10-18 12:22:00,
2013-10-18 05:27:00,25.6,21.7,27.71,East,90,0.0,0.0,85,0.00,,,0.00,WUHU216HW,2013-10-18 12:27:00,
2013-10-18 05:32:00,25.4,21.5,27.71,East,90,0.0,0.4,85,0.00,,,0.00,WUHU216HW,2013-10-18 12:32:00,
2013-10-18 05:37:00,25.4,21.5,27.72,East,90,0.0,0.4,85,0.00,,,0.00,WUHU216HW,2013-10-18 12:37:00,
2013-10-18 05:42:00,25.6,21.7,27.72,East,90,0.0,0.0,85,0.00,,,0.00,WUHU216HW,2013-10-18 12:42:00,
2013-10-18 05:47:00,25.4,21.5,27.71,East,90,0.0,0.0,85,0.00,,,0.00,WUHU216HW,2013-10-18 12:47:00,
2013-10-18 05:52:00,25.4,21.5,27.71,East,90,0.0,0.0,85,0.00,,,0.00,WUHU216HW,2013-10-18 12:52:00,
2013-10-18 05:57:00,25.4,21.5,27.71,East,90,0.0,0.0,85,0.00,,,0.00,WUHU216HW,2013-10-18 12:57:00,
2013-10-18 06:02:00,25.4,21.5,27.71,East,90,0.0,0.0,85,0.00,,,0.00,WUHU216HW,2013-10-18 13:02:00,
2013-10-18 06:07:00,25.6,21.4,27.71,East,90,0.0,0.0,84,0.00,,,0.00,WUHU216HW,2013-10-18 13:07:00,
2013-10-18 06:12:00,25.6,21.4,27.71,East,90,0.0,0.0,84,0.00,,,0.00,WUHU216HW,2013-10-18 13:12:00,
2013-10-18 06:17:00,25.6,21.4,27.71,East,90,0.0,0.0,84,0.00,,,0.00,WUHU216HW,2013-10-18 13:17:00,
2013-10-18 06:22:00,25.6,21.4,27.71,East,90,0.0,0.0,84,0.00,,,0.00,WUHU216HW,2013-10-18 13:22:00,
2013-10-18 06:27:00,25.6,21.4,27.71,East,90,0.0,0.0,84,0.00,,,0.00,WUHU216HW,2013-10-18 13:27:00,
2013-10-18 06:32:00,25.6,21.4,27.71,East,90,0.0,0.0,84,0.00,,,0.00,WUHU216HW,2013-10-18 13:32:00,
2013-10-18 06:37:00,25.4,21.3,27.71,East,90,0.0,0.0,84,0.00,,,0.00,WUHU216HW,2013-10-18 13:37:00,
2013-10-18 06:42:00,25.4,21.3,27.71,East,90,0.0,0.0,84,0.00,,,0.00,WUHU216HW,2013-10-18 13:42:00,
2013-10-18 06:47:00,25.2,21.1,27.71,East,90,0.0,0.0,84,0.00,,,0.00,WUHU216HW,2013-10-18 13:47:00,
2013-10-18 06:52:00,25.2,21.1,27.72,East,90,0.0,0.0,84,0.00,,,0.00,WUHU216HW,2013-10-18 13:52:00,
2013-10-18 06:57:00,25.2,21.1,27.72,East,90,0.0,0.0,84,0.00,,,0.00,WUHU216HW,2013-10-18 13:57:00,
2013-10-18 07:02:00,25.2,21.1,27.72,East,90,0.0,0.0,84,0.00,,,0.00,WUHU216HW,2013-10-18 14:02:00,
2013-10-18 07:07:00,25.2,21.1,27.72,East,90,0.0,0.0,84,0.00,,,0.00,WUHU216HW,2013-10-18 14:07:00,
2013-10-18 07:12:00,25.2,21.1,27.72,East,90,0.0,0.0,84,0.00,,,0.00,WUHU216HW,2013-10-18 14:12:00,
2013-10-18 07:17:00,25.2,21.1,27.72,East,90,0.0,0.0,84,0.00,,,0.00,WUHU216HW,2013-10-18 14:17:00,
2013-10-18 07:22:00,25.0,20.9,27.72,East,90,0.0,0.0,84,0.00,,,0.00,WUHU216HW,2013-10-18 14:22:00,
2013-10-18 07:27:00,25.0,20.9,27.72,East,90,0.0,0.0,84,0.00,,,0.00,WUHU216HW,2013-10-18 14:27:00,
2013-10-18 07:32:00,25.2,21.1,27.73,East,90,0.0,0.0,84,0.00,,,0.00,WUHU216HW,2013-10-18 14:32:00,
2013-10-18 07:37:00,25.2,21.1,27.73,East,90,0.0,0.0,84,0.00,,,0.00,WUHU216HW,2013-10-18 14:37:00,
2013-10-18 07:42:00,25.0,20.9,27.73,East,90,0.0,0.0,84,0.00,,,0.00,WUHU216HW,2013-10-18 14:42:00,
2013-10-18 07:47:00,25.0,20.9,27.72,East,90,0.0,0.0,84,0.00,,,0.00,WUHU216HW,2013-10-18 14:47:00,
2013-10-18 07:52:00,25.2,21.1,27.73,East,90,0.0,0.0,84,0.00,,,0.00,WUHU216HW,2013-10-18 14:52:00,
2013-10-18 07:57:00,25.4,21.3,27.73,East,90,0.0,0.0,84,0.00,,,0.00,WUHU216HW,2013-10-18 14:57:00,
2013-10-18 08:02:00,25.4,21.3,27.73,NNE,23,0.0,0.2,84,0.00,,,0.00,WUHU216HW,2013-10-18 15:02:00,
2013-10-18 08:07:00,25.6,21.4,27.73,NNE,23,0.0,0.2,84,0.00,,,0.00,WUHU216HW,2013-10-18 15:07:00,
2013-10-18 08:12:00,25.6,21.4,27.73,NNE,23,0.0,0.2,84,0.00,,,0.00,WUHU216HW,2013-10-18 15:12:00,
2013-10-18 08:17:00,25.9,22.0,27.73,NNE,23,0.0,0.2,85,0.00,,,0.00,WUHU216HW,2013-10-18 15:17:00,
2013-10-18 08:22:00,26.3,22.3,27.73,NNE,23,0.0,0.0,85,0.00,,,0.00,WUHU216HW,2013-10-18 15:22:00,
2013-10-18 08:27:00,26.5,22.5,27.73,NNE,23,0.0,0.0,85,0.00,,,0.00,WUHU216HW,2013-10-18 15:27:00,
2013-10-18 08:32:00,26.6,22.7,27.73,NNE,23,0.0,0.0,85,0.00,,,0.00,WUHU216HW,2013-10-18 15:32:00,
2013-10-18 08:37:00,27.0,23.0,27.73,NNE,23,0.0,0.0,85,0.00,,,0.00,WUHU216HW,2013-10-18 15:37:00,
2013-10-18 08:42:00,27.4,23.4,27.73,NNE,23,0.0,0.2,85,0.00,,,0.00,WUHU216HW,2013-10-18 15:42:00,
2013-10-18 08:47:00,27.7,23.8,27.73,NNE,23,0.0,0.2,85,0.00,,,0.00,WUHU216HW,2013-10-18 15:47:00,
2013-10-18 08:52:00,28.3,24.6,27.73,NNE,23,0.0,0.0,86,0.00,,,0.00,WUHU216HW,2013-10-18 15:52:00,
2013-10-18 08:57:00,28.6,24.9,27.73,NNE,23,0.0,0.2,86,0.00,,,0.00,WUHU216HW,2013-10-18 15:57:00,
2013-10-18 09:02:00,29.5,26.1,27.73,West,270,0.0,0.7,87,0.00,,,0.00,WUHU216HW,2013-10-18 16:02:00,
2013-10-18 09:07:00,30.2,26.8,27.73,West,270,0.0,0.7,87,0.00,,,0.00,WUHU216HW,2013-10-18 16:07:00,
2013-10-18 09:12:00,30.6,27.2,27.73,NNE,23,0.0,0.4,87,0.00,,,0.00,WUHU216HW,2013-10-18 16:12:00,
2013-10-18 09:17:00,31.7,28.3,27.73,NE,45,0.2,0.4,87,0.00,,,0.00,WUHU216HW,2013-10-18 16:17:00,
2013-10-18 09:22:00,32.6,29.4,27.74,NNE,23,0.0,0.7,88,0.00,,,0.00,WUHU216HW,2013-10-18 16:22:00,
2013-10-18 09:27:00,34.0,31.1,27.74,ENE,68,0.2,1.8,89,0.00,,,0.00,WUHU216HW,2013-10-18 16:27:00,
2013-10-18 09:32:00,35.1,32.1,27.74,NE,45,0.0,1.8,89,0.00,,,0.00,WUHU216HW,2013-10-18 16:32:00,
2013-10-18 09:37:00,36.0,32.8,27.74,East,90,0.0,0.4,88,0.00,,,0.00,WUHU216HW,2013-10-18 16:37:00,
2013-10-18 09:42:00,37.4,34.5,27.74,ENE,68,0.4,0.4,89,0.00,,,0.00,WUHU216HW,2013-10-18 16:42:00,
2013-10-18 09:47:00,39.1,36.4,27.74,NE,45,0.4,2.0,90,0.00,,,0.00,WUHU216HW,2013-10-18 16:47:00,
2013-10-18 09:52:00,40.0,36.6,27.73,ESE,113,0.9,2.0,88,0.00,,,0.00,WUHU216HW,2013-10-18 16:52:00,
2013-10-18 09:57:00,41.0,37.1,27.73,ESE,113,1.3,2.5,86,0.00,,,0.00,WUHU216HW,2013-10-18 16:57:00,
2013-10-18 10:02:00,42.1,37.9,27.73,SE,135,2.9,2.9,85,0.00,,,0.00,WUHU216HW,2013-10-18 17:02:00,
2013-10-18 10:07:00,42.8,37.4,27.73,ESE,113,0.9,3.4,81,0.00,,,0.00,WUHU216HW,2013-10-18 17:07:00,
2013-10-18 10:12:00,43.9,37.8,27.73,SE,135,0.4,3.4,79,0.00,,,0.00,WUHU216HW,2013-10-18 17:12:00,
2013-10-18 10:17:00,45.0,38.5,27.73,SE,135,0.4,2.5,78,0.00,,,0.00,WUHU216HW,2013-10-18 17:17:00,
2013-10-18 10:22:00,46.1,39.0,27.73,ESE,113,1.8,2.9,76,0.00,,,0.00,WUHU216HW,2013-10-18 17:22:00,
2013-10-18 10:27:00,46.8,39.0,27.73,SE,135,0.2,3.4,74,0.00,,,0.00,WUHU216HW,2013-10-18 17:27:00,
2013-10-18 10:32:00,47.9,40.0,27.73,SE,135,1.8,3.4,74,0.00,,,0.00,WUHU216HW,2013-10-18 17:32:00,
2013-10-18 10:35:00,48.2,40.2,27.73,SE,135,0.4,2.7,74,0.00,,,0.00,WUHU216HW,2013-10-18 17:35:00,
2013-10-18 10:40:00,48.6,40.0,27.74,SE,135,1.3,2.0,72,0.00,,,0.00,WUHU216HW,2013-10-18 17:40:00,
2013-10-18 10:45:00,49.5,40.9,27.74,WSW,248,2.5,3.4,72,0.00,,,0.00,WUHU216HW,2013-10-18 17:45:00,
2013-10-18 10:50:00,50.6,41.6,27.74,NNW,338,0.4,3.4,71,0.00,,,0.00,WUHU216HW,2013-10-18 17:50:00,
2013-10-18 10:55:00,51.1,41.3,27.73,NNE,23,0.0,2.5,69,0.00,,,0.00,WUHU216HW,2013-10-18 17:55:00,
2013-10-18 11:00:00,51.7,41.5,27.73,SW,225,1.8,2.9,68,0.00,,,0.00,WUHU216HW,2013-10-18 18:00:00,
2013-10-18 11:05:00,51.3,39.9,27.73,SW,225,0.7,3.4,65,0.00,,,0.00,WUHU216HW,2013-10-18 18:05:00,
2013-10-18 11:10:00,51.8,41.7,27.73,North,0,0.4,3.4,68,0.00,,,0.00,WUHU216HW,2013-10-18 18:10:00,
2013-10-18 11:15:00,52.7,40.9,27.73,ESE,113,2.0,2.7,64,0.00,,,0.00,WUHU216HW,2013-10-18 18:15:00,
2013-10-18 11:20:00,52.9,40.6,27.73,WSW,248,0.2,2.5,63,0.00,,,0.00,WUHU216HW,2013-10-18 18:20:00,
2013-10-18 11:25:00,53.8,41.1,27.73,WSW,248,1.3,2.5,62,0.00,,,0.00,WUHU216HW,2013-10-18 18:25:00,
2013-10-18 11:30:00,54.5,41.0,27.73,WSW,248,1.3,2.5,60,0.00,,,0.00,WUHU216HW,2013-10-18 18:30:00,
2013-10-18 11:35:00,55.3,41.6,27.73,WSW,248,0.4,2.5,60,0.00,,,0.00,WUHU216HW,2013-10-18 18:35:00,
2013-10-18 11:40:00,55.8,41.7,27.73,SW,225,2.5,3.1,59,0.00,,,0.00,WUHU216HW,2013-10-18 18:40:00,
2013-10-18 11:45:00,55.8,41.2,27.73,WSW,248,2.5,3.1,58,0.00,,,0.00,WUHU216HW,2013-10-18 18:45:00,
2013-10-18 11:50:00,55.8,39.8,27.73,SSE,158,2.0,3.1,55,0.00,,,0.00,WUHU216HW,2013-10-18 18:50:00,
2013-10-18 11:55:00,55.4,39.0,27.72,SE,135,3.1,4.3,54,0.00,,,0.00,WUHU216HW,2013-10-18 18:55:00,
2013-10-18 12:00:00,55.4,39.4,27.72,WSW,248,1.8,4.3,55,0.00,,,0.00,WUHU216HW,2013-10-18 19:00:00,
2013-10-18 12:05:00,56.0,40.9,27.72,SW,225,1.6,3.1,57,0.00,,,0.00,WUHU216HW,2013-10-18 19:05:00,
2013-10-18 12:10:00,56.7,39.2,27.72,SSE,158,2.2,3.1,52,0.00,,,0.00,WUHU216HW,2013-10-18 19:10:00,
2013-10-18 12:15:00,56.5,40.1,27.72,ENE,68,0.0,2.7,54,0.00,,,0.00,WUHU216HW,2013-10-18 19:15:00,
2013-10-18 12:20:00,56.9,40.4,27.72,SW,225,2.5,2.9,54,0.00,,,0.00,WUHU216HW,2013-10-18 19:20:00,
2013-10-18 12:25:00,56.9,40.4,27.72,WSW,248,1.1,6.0,54,0.00,,,0.00,WUHU216HW,2013-10-18 19:25:00,
2013-10-18 12:30:00,57.1,39.6,27.72,ENE,68,2.5,6.0,52,0.00,,,0.00,WUHU216HW,2013-10-18 19:30:00,
2013-10-18 12:35:00,57.2,40.3,27.71,SSE,158,0.0,3.4,53,0.00,,,0.00,WUHU216HW,2013-10-18 19:35:00,
2013-10-18 12:40:00,57.6,41.0,27.71,WSW,248,0.7,3.4,54,0.00,,,0.00,WUHU216HW,2013-10-18 19:40:00,
2013-10-18 12:45:00,57.8,40.8,27.71,SSW,203,0.0,3.4,53,0.00,,,0.00,WUHU216HW,2013-10-18 19:45:00,
2013-10-18 12:50:00,57.8,40.8,27.71,WSW,248,1.8,2.9,53,0.00,,,0.00,WUHU216HW,2013-10-18 19:50:00,
2013-10-18 12:55:00,57.8,40.3,27.71,WSW,248,1.8,4.5,52,0.00,,,0.00,WUHU216HW,2013-10-18 19:55:00,
2013-10-18 13:00:00,57.8,39.9,27.70,SW,225,1.6,4.5,51,0.00,,,0.00,WUHU216HW,2013-10-18 20:00:00,
2013-10-18 13:05:00,58.1,40.1,27.70,WSW,248,0.4,4.5,51,0.00,,,0.00,WUHU216HW,2013-10-18 20:05:00,
2013-10-18 13:10:00,58.5,40.1,27.70,SW,225,1.8,4.5,50,0.00,,,0.00,WUHU216HW,2013-10-18 20:10:00,
2013-10-18 13:15:00,58.9,38.6,27.69,SSW,203,1.6,3.6,47,0.00,,,0.00,WUHU216HW,2013-10-18 20:15:00,
2013-10-18 13:20:00,59.0,38.2,27.70,ESE,113,1.6,3.6,46,0.00,,,0.00,WUHU216HW,2013-10-18 20:20:00,
2013-10-18 13:25:00,59.4,40.2,27.69,SSW,203,1.8,2.5,49,0.00,,,0.00,WUHU216HW,2013-10-18 20:25:00,
2013-10-18 13:30:00,59.8,40.0,27.69,East,90,3.6,3.6,48,0.00,,,0.00,WUHU216HW,2013-10-18 20:30:00,
2013-10-18 13:35:00,59.0,38.2,27.69,SSW,203,1.3,4.7,46,0.00,,,0.00,WUHU216HW,2013-10-18 20:35:00,
2013-10-18 13:40:00,59.4,40.2,27.69,SW,225,1.6,4.7,49,0.00,,,0.00,WUHU216HW,2013-10-18 20:40:00,
2013-10-18 13:45:00,59.4,39.1,27.69,NNE,23,0.0,3.4,47,0.00,,,0.00,WUHU216HW,2013-10-18 20:45:00,
2013-10-18 13:50:00,59.4,39.1,27.69,SSE,158,2.0,2.5,47,0.00,,,0.00,WUHU216HW,2013-10-18 20:50:00,
2013-10-18 13:55:00,58.9,38.6,27.69,ESE,113,1.8,3.6,47,0.00,,,0.00,WUHU216HW,2013-10-18 20:55:00,
2013-10-18 14:00:00,58.3,38.7,27.69,SSW,203,2.9,4.7,48,0.00,,,0.00,WUHU216HW,2013-10-18 21:00:00,
2013-10-18 14:05:00,58.7,39.1,27.69,West,270,3.1,4.7,48,0.00,,,0.00,WUHU216HW,2013-10-18 21:05:00,
2013-10-18 14:10:00,58.9,39.2,27.69,SW,225,2.5,3.6,48,0.00,,,0.00,WUHU216HW,2013-10-18 21:10:00,
2013-10-18 14:15:00,59.0,39.3,27.69,NNW,338,0.0,3.4,48,0.00,,,0.00,WUHU216HW,2013-10-18 21:15:00,
2013-10-18 14:20:00,58.9,38.6,27.68,West,270,2.7,4.3,47,0.00,,,0.00,WUHU216HW,2013-10-18 21:20:00,
2013-10-18 14:25:00,58.7,39.1,27.68,SW,225,0.4,4.3,48,0.00,,,0.00,WUHU216HW,2013-10-18 21:25:00,
2013-10-18 14:30:00,58.7,39.1,27.68,South,180,0.4,2.7,48,0.00,,,0.00,WUHU216HW,2013-10-18 21:30:00,
2013-10-18 14:35:00,58.5,37.7,27.68,SE,135,0.4,2.0,46,0.00,,,0.00,WUHU216HW,2013-10-18 21:35:00,
2013-10-18 14:40:00,58.7,38.4,27.68,SW,225,2.5,6.7,47,0.00,,,0.00,WUHU216HW,2013-10-18 21:40:00,
2013-10-18 14:45:00,59.2,38.3,27.68,SW,225,2.2,6.7,46,0.00,,,0.00,WUHU216HW,2013-10-18 21:45:00,
2013-10-18 14:50:00,59.4,39.1,27.68,SW,225,1.1,2.9,47,0.00,,,0.00,WUHU216HW,2013-10-18 21:50:00,
2013-10-18 14:55:00,59.4,38.0,27.67,West,270,2.9,2.9,45,0.00,,,0.00,WUHU216HW,2013-10-18 21:55:00,
2013-10-18 15:00:00,59.4,38.5,27.67,East,90,0.4,2.9,46,0.00,,,0.00,WUHU216HW,2013-10-18 22:00:00,
2013-10-18 15:05:00,59.4,38.5,27.67,NNE,23,0.4,5.1,46,0.00,,,0.00,WUHU216HW,2013-10-18 22:05:00,
2013-10-18 15:10:00,59.0,38.8,27.67,SSW,203,0.2,5.1,47,0.00,,,0.00,WUHU216HW,2013-10-18 22:10:00,
2013-10-18 15:15:00,58.9,36.9,27.67,South,180,2.5,2.7,44,0.00,,,0.00,WUHU216HW,2013-10-18 22:15:00,
2013-10-18 15:20:00,58.9,37.4,27.66,SSE,158,0.0,2.7,45,0.00,,,0.00,WUHU216HW,2013-10-18 22:20:00,
2013-10-18 15:25:00,59.4,38.5,27.66,ENE,68,0.4,2.5,46,0.00,,,0.00,WUHU216HW,2013-10-18 22:25:00,
2013-10-18 15:30:00,60.3,39.3,27.66,SW,225,1.8,2.7,46,0.00,,,0.00,WUHU216HW,2013-10-18 22:30:00,
2013-10-18 15:35:00,60.8,38.7,27.67,South,180,0.4,3.4,44,0.00,,,0.00,WUHU216HW,2013-10-18 22:35:00,
2013-10-18 15:40:00,61.0,39.4,27.66,WSW,248,0.2,3.4,45,0.00,,,0.00,WUHU216HW,2013-10-18 22:40:00,
2013-10-18 15:45:00,61.4,39.2,27.66,SW,225,2.5,2.7,44,0.00,,,0.00,WUHU216HW,2013-10-18 22:45:00,
2013-10-18 15:50:00,60.8,38.7,27.66,West,270,0.2,2.9,44,0.00,,,0.00,WUHU216HW,2013-10-18 22:50:00,
2013-10-18 15:55:00,60.3,38.8,27.66,SW,225,1.3,2.9,45,0.00,,,0.00,WUHU216HW,2013-10-18 22:55:00,
2013-10-18 16:00:00,59.8,38.3,27.66,SSE,158,0.4,2.2,45,0.00,,,0.00,WUHU216HW,2013-10-18 23:00:00,
2013-10-18 16:05:00,59.4,36.8,27.66,SSW,203,1.1,3.4,43,0.00,,,0.00,WUHU216HW,2013-10-18 23:05:00,
2013-10-18 16:10:00,59.0,37.1,27.66,SW,225,2.5,3.4,44,0.00,,,0.00,WUHU216HW,2013-10-18 23:10:00,
2013-10-18 16:15:00,59.0,37.6,27.66,WSW,248,3.4,4.0,45,0.00,,,0.00,WUHU216HW,2013-10-18 23:15:00,
2013-10-18 16:20:00,59.0,37.6,27.66,SW,225,1.8,4.0,45,0.00,,,0.00,WUHU216HW,2013-10-18 23:20:00,
2013-10-18 16:25:00,58.9,37.4,27.66,WSW,248,2.7,3.4,45,0.00,,,0.00,WUHU216HW,2013-10-18 23:25:00,
2013-10-18 16:30:00,58.5,37.2,27.66,SW,225,1.8,3.4,45,0.00,,,0.00,WUHU216HW,2013-10-18 23:30:00,
2013-10-18 16:35:00,58.3,37.5,27.65,WSW,248,1.3,3.4,46,0.00,,,0.00,WUHU216HW,2013-10-18 23:35:00,
2013-10-18 16:40:00,58.1,37.4,27.66,SW,225,1.1,3.1,46,0.00,,,0.00,WUHU216HW,2013-10-18 23:40:00,
2013-10-18 16:45:00,58.0,37.3,27.65,SSW,203,1.6,2.5,46,0.00,,,0.00,WUHU216HW,2013-10-18 23:45:00,
2013-10-18 16:50:00,57.8,37.6,27.65,SW,225,1.8,2.5,47,0.00,,,0.00,WUHU216HW,2013-10-18 23:50:00,
2013-10-18 16:55:00,57.6,37.4,27.65,SW,225,2.7,3.4,47,0.00,,,0.00,WUHU216HW,2013-10-18 23:55:00,
2013-10-18 17:00:00,57.6,37.4,27.65,SW,225,1.6,3.4,47,0.00,,,0.00,WUHU216HW,2013-10-19 00:00:00,
2013-10-18 17:05:00,57.6,37.4,27.65,WSW,248,2.2,3.1,47,0.00,,,0.00,WUHU216HW,2013-10-19 00:05:00,
2013-10-18 17:10:00,57.8,37.6,27.65,WSW,248,0.9,2.7,47,0.00,,,0.00,WUHU216HW,2013-10-19 00:10:00,
2013-10-18 17:15:00,58.0,37.8,27.64,SW,225,1.6,2.7,47,0.00,,,0.00,WUHU216HW,2013-10-19 00:15:00,
2013-10-18 17:20:00,58.0,37.8,27.65,SSE,158,0.4,2.7,47,0.00,,,0.00,WUHU216HW,2013-10-19 00:20:00,
2013-10-18 17:25:00,57.2,37.7,27.65,SE,135,0.0,1.6,48,0.00,,,0.00,WUHU216HW,2013-10-19 00:25:00,
2013-10-18 17:30:00,56.9,37.4,27.65,SW,225,0.0,0.4,48,0.00,,,0.00,WUHU216HW,2013-10-19 00:30:00,
2013-10-18 17:35:00,56.5,37.6,27.65,NW,315,0.0,0.4,49,0.00,,,0.00,WUHU216HW,2013-10-19 00:35:00,
2013-10-18 17:40:00,55.8,36.9,27.65,NW,315,0.0,0.2,49,0.00,,,0.00,WUHU216HW,2013-10-19 00:40:00,
2013-10-18 17:45:00,55.1,36.7,27.65,NW,315,0.0,0.0,50,0.00,,,0.00,WUHU216HW,2013-10-19 00:45:00,
2013-10-18 17:50:00,54.4,35.6,27.64,NW,315,0.0,0.0,49,0.00,,,0.00,WUHU216HW,2013-10-19 00:50:00,
2013-10-18 17:55:00,53.6,35.5,27.64,NW,315,0.0,0.0,50,0.00,,,0.00,WUHU216HW,2013-10-19 00:55:00,
2013-10-18 18:00:00,52.9,35.3,27.64,NW,315,0.0,0.0,51,0.00,,,0.00,WUHU216HW,2013-10-19 01:00:00,
2013-10-18 18:05:00,52.2,35.1,27.64,NW,315,0.0,0.0,52,0.00,,,0.00,WUHU216HW,2013-10-19 01:05:00,
2013-10-18 18:10:00,51.3,34.3,27.64,NW,315,0.0,0.0,52,0.00,,,0.00,WUHU216HW,2013-10-19 01:10:00,
2013-10-18 18:15:00,50.4,33.9,27.64,NNW,338,0.0,0.0,53,0.00,,,0.00,WUHU216HW,2013-10-19 01:15:00,
2013-10-18 18:20:00,49.5,33.5,27.64,NNW,338,0.0,0.0,54,0.00,,,0.00,WUHU216HW,2013-10-19 01:20:00,
2013-10-18 18:25:00,48.6,33.1,27.64,NNW,338,0.0,0.0,55,0.00,,,0.00,WUHU216HW,2013-10-19 01:25:00,
2013-10-18 18:30:00,47.9,32.9,27.64,North,0,0.2,0.2,56,0.00,,,0.00,WUHU216HW,2013-10-19 01:30:00,
2013-10-18 18:35:00,47.3,32.9,27.64,North,0,0.0,0.2,57,0.00,,,0.00,WUHU216HW,2013-10-19 01:35:00,
2013-10-18 18:40:00,46.8,32.3,27.64,NE,45,0.0,0.2,57,0.00,,,0.00,WUHU216HW,2013-10-19 01:40:00,
2013-10-18 18:45:00,46.3,31.8,27.64,NE,45,0.0,0.2,57,0.00,,,0.00,WUHU216HW,2013-10-19 01:45:00,
2013-10-18 18:50:00,45.5,31.6,27.64,NE,45,0.0,0.0,58,0.00,,,0.00,WUHU216HW,2013-10-19 01:50:00,
2013-10-18 18:55:00,45.0,31.6,27.64,NE,45,0.0,0.0,59,0.00,,,0.00,WUHU216HW,2013-10-19 01:55:00,
2013-10-18 19:00:00,44.5,31.5,27.64,NE,45,0.0,0.0,60,0.00,,,0.00,WUHU216HW,2013-10-19 02:00:00,
2013-10-18 19:05:00,43.9,31.3,27.64,NE,45,0.0,0.0,61,0.00,,,0.00,WUHU216HW,2013-10-19 02:05:00,
2013-10-18 19:10:00,43.4,30.8,27.64,NE,45,0.0,0.0,61,0.00,,,0.00,WUHU216HW,2013-10-19 02:10:00,
2013-10-18 19:15:00,42.8,31.1,27.64,NE,45,0.0,0.0,63,0.00,,,0.00,WUHU216HW,2013-10-19 02:15:00,
2013-10-18 19:20:00,42.3,31.0,27.64,ENE,68,0.0,0.0,64,0.00,,,0.00,WUHU216HW,2013-10-19 02:20:00,
2013-10-18 19:25:00,41.9,31.0,27.64,ENE,68,0.0,0.0,65,0.00,,,0.00,WUHU216HW,2013-10-19 02:25:00,
2013-10-18 19:30:00,41.6,30.7,27.64,ENE,68,0.0,0.0,65,0.00,,,0.00,WUHU216HW,2013-10-19 02:30:00,
2013-10-18 19:35:00,41.2,30.3,27.64,ENE,68,0.0,0.0,65,0.00,,,0.00,WUHU216HW,2013-10-19 02:35:00,
2013-10-18 19:40:00,40.9,30.3,27.65,ENE,68,0.0,0.0,66,0.00,,,0.00,WUHU216HW,2013-10-19 02:40:00,
2013-10-18 19:45:00,40.7,30.2,27.65,ENE,68,0.0,0.0,66,0.00,,,0.00,WUHU216HW,2013-10-19 02:45:00,
2013-10-18 19:50:00,40.3,30.2,27.65,ENE,68,0.0,0.0,67,0.00,,,0.00,WUHU216HW,2013-10-19 02:50:00,
2013-10-18 19:55:00,40.0,29.8,27.65,ENE,68,0.0,0.0,67,0.00,,,0.00,WUHU216HW,2013-10-19 02:55:00,
2013-10-18 20:00:00,39.6,29.4,27.65,ENE,68,0.0,0.0,67,0.00,,,0.00,WUHU216HW,2013-10-19 03:00:00,
2013-10-18 20:05:00,39.2,29.1,27.64,ENE,68,0.0,0.0,67,0.00,,,0.00,WUHU216HW,2013-10-19 03:05:00,
2013-10-18 20:10:00,39.1,29.0,27.64,ENE,68,0.0,0.0,67,0.00,,,0.00,WUHU216HW,2013-10-19 03:10:00,
2013-10-18 20:15:00,38.7,28.6,27.64,ENE,68,0.0,0.0,67,0.00,,,0.00,WUHU216HW,2013-10-19 03:15:00,
2013-10-18 20:20:00,38.5,28.8,27.64,ENE,68,0.0,0.0,68,0.00,,,0.00,WUHU216HW,2013-10-19 03:20:00,
2013-10-18 20:25:00,38.0,28.4,27.64,ENE,68,0.0,0.0,68,0.00,,,0.00,WUHU216HW,2013-10-19 03:25:00,
2013-10-18 20:30:00,37.8,28.5,27.64,ENE,68,0.0,0.0,69,0.00,,,0.00,WUHU216HW,2013-10-19 03:30:00,
2013-10-18 20:35:00,37.4,28.3,27.64,ENE,68,0.0,0.0,69,0.00,,,0.00,WUHU216HW,2013-10-19 03:35:00,
2013-10-18 20:40:00,37.1,28.3,27.64,ENE,68,0.0,0.0,70,0.00,,,0.00,WUHU216HW,2013-10-19 03:40:00,
2013-10-18 20:45:00,36.9,28.5,27.65,ENE,68,0.0,0.0,71,0.00,,,0.00,WUHU216HW,2013-10-19 03:45:00,
2013-10-18 20:50:00,36.7,28.3,27.64,ENE,68,0.0,0.0,71,0.00,,,0.00,WUHU216HW,2013-10-19 03:50:00,
2013-10-18 20:55:00,36.5,28.1,27.64,ENE,68,0.0,0.0,71,0.00,,,0.00,WUHU216HW,2013-10-19 03:55:00,
2013-10-18 21:00:00,36.2,28.0,27.64,ENE,68,0.0,0.0,72,0.00,,,0.00,WUHU216HW,2013-10-19 04:00:00,
2013-10-18 21:01:00,36.2,28.0,27.64,ENE,68,0.0,0.0,72,0.00,,,0.00,WUHU216HW,2013-10-19 04:01:00,
2013-10-18 21:06:00,35.6,27.5,27.64,ENE,68,0.0,0.0,72,0.00,,,0.00,WUHU216HW,2013-10-19 04:06:00,
2013-10-18 21:11:00,35.6,27.5,27.64,ENE,68,0.0,0.0,72,0.00,,,0.00,WUHU216HW,2013-10-19 04:11:00,
2013-10-18 21:16:00,35.3,27.5,27.64,ENE,68,0.0,0.0,73,0.00,,,0.00,WUHU216HW,2013-10-19 04:16:00,
2013-10-18 21:21:00,35.1,27.3,27.64,ENE,68,0.0,0.0,73,0.00,,,0.00,WUHU216HW,2013-10-19 04:21:00,
2013-10-18 21:26:00,34.9,27.1,27.64,ENE,68,0.0,0.0,73,0.00,,,0.00,WUHU216HW,2013-10-19 04:26:00,
2013-10-18 21:31:00,34.9,27.1,27.65,ENE,68,0.0,0.0,73,0.00,,,0.00,WUHU216HW,2013-10-19 04:31:00,
2013-10-18 21:36:00,34.7,26.9,27.65,ENE,68,0.0,0.0,73,0.00,,,0.00,WUHU216HW,2013-10-19 04:36:00,
2013-10-18 21:41:00,34.6,26.7,27.65,ENE,68,0.0,0.0,73,0.00,,,0.00,WUHU216HW,2013-10-19 04:41:00,
2013-10-18 21:46:00,34.4,26.6,27.65,ENE,68,0.0,0.0,73,0.00,,,0.00,WUHU216HW,2013-10-19 04:46:00,
2013-10-18 21:51:00,34.2,26.4,27.64,ENE,68,0.0,0.0,73,0.00,,,0.00,WUHU216HW,2013-10-19 04:51:00,
2013-10-18 21:56:00,33.8,26.0,27.65,ENE,68,0.0,0.0,73,0.00,,,0.00,WUHU216HW,2013-10-19 04:56:00,
2013-10-18 22:01:00,33.7,26.2,27.65,ENE,68,0.0,0.0,74,0.00,,,0.00,WUHU216HW,2013-10-19 05:01:00,
2013-10-18 22:06:00,33.5,26.6,27.65,ENE,68,0.0,0.0,76,0.00,,,0.00,WUHU216HW,2013-10-19 05:06:00,
2013-10-18 22:11:00,33.1,26.3,27.65,ENE,68,0.0,0.0,76,0.00,,,0.00,WUHU216HW,2013-10-19 05:11:00,
2013-10-18 22:16:00,32.9,26.2,27.65,ENE,68,0.0,0.0,76,0.00,,,0.00,WUHU216HW,2013-10-19 05:16:00,
2013-10-18 22:21:00,32.8,26.0,27.64,ENE,68,0.0,0.0,76,0.00,,,0.00,WUHU216HW,2013-10-19 05:21:00,
2013-10-18 22:26:00,32.8,26.0,27.64,ENE,68,0.0,0.0,76,0.00,,,0.00,WUHU216HW,2013-10-19 05:26:00,
2013-10-18 22:31:00,32.6,25.8,27.65,ENE,68,0.0,0.0,76,0.00,,,0.00,WUHU216HW,2013-10-19 05:31:00,
2013-10-18 22:36:00,32.2,25.5,27.64,ENE,68,0.0,0.0,76,0.00,,,0.00,WUHU216HW,2013-10-19 05:36:00,
2013-10-18 22:41:00,32.0,25.7,27.64,ENE,68,0.0,0.0,77,0.00,,,0.00,WUHU216HW,2013-10-19 05:41:00,
2013-10-18 22:46:00,32.0,26.0,27.65,ENE,68,0.4,0.9,78,0.00,,,0.00,WUHU216HW,2013-10-19 05:46:00,
2013-10-18 22:51:00,31.9,25.8,27.64,ENE,68,0.0,0.9,78,0.00,,,0.00,WUHU216HW,2013-10-19 05:51:00,
2013-10-18 22:56:00,31.7,25.7,27.65,ENE,68,0.2,0.4,78,0.00,,,0.00,WUHU216HW,2013-10-19 05:56:00,
2013-10-18 23:01:00,31.5,25.7,27.64,ENE,68,0.7,0.7,79,0.00,,,0.00,WUHU216HW,2013-10-19 06:01:00,
2013-10-18 23:06:00,31.3,25.6,27.65,ENE,68,0.2,1.1,79,0.00,,,0.00,WUHU216HW,2013-10-19 06:06:00,
2013-10-18 23:11:00,31.1,25.4,27.64,ENE,68,0.0,1.1,79,0.00,,,0.00,WUHU216HW,2013-10-19 06:11:00,
2013-10-18 23:16:00,31.1,25.4,27.64,ENE,68,0.0,0.4,79,0.00,,,0.00,WUHU216HW,2013-10-19 06:16:00,
2013-10-18 23:21:00,31.0,25.2,27.64,ENE,68,0.0,0.0,79,0.00,,,0.00,WUHU216HW,2013-10-19 06:21:00,
2013-10-18 23:26:00,31.0,25.2,27.65,South,180,0.0,0.0,79,0.00,,,0.00,WUHU216HW,2013-10-19 06:26:00,
2013-10-18 23:31:00,30.8,25.0,27.64,South,180,0.0,0.0,79,0.00,,,0.00,WUHU216HW,2013-10-19 06:31:00,
2013-10-18 23:36:00,30.6,24.8,27.64,South,180,0.0,0.0,79,0.00,,,0.00,WUHU216HW,2013-10-19 06:36:00,
2013-10-18 23:41:00,30.6,24.8,27.64,SSE,158,0.0,0.0,79,0.00,,,0.00,WUHU216HW,2013-10-19 06:41:00,
2013-10-18 23:46:00,30.4,25.0,27.64,ESE,113,0.0,0.0,80,0.00,,,0.00,WUHU216HW,2013-10-19 06:46:00,
2013-10-18 23:51:00,30.4,25.0,27.64,ESE,113,0.0,0.0,80,0.00,,,0.00,WUHU216HW,2013-10-19 06:51:00,
2013-10-18 23:56:00,30.4,25.0,27.64,ESE,113,0.0,0.0,80,0.00,,,0.00,WUHU216HW,2013-10-19 06:56:00,